User: anonymous   Login
Location: Colle Santa Colomba
(42.0333°N, 12.5667°E)
Time: 05:24:41
(UTC+00:00)
Language:

EXPRESS MD2 - Orbit

View from above orbital plane
View from above orbital plane
View from above satellite
View from above satellite

Ground track
Ground track

The orbit data is extracted from the following two-line orbital elements,

1 38745U 12044B   22017.52755348  .00020041  26456-5  49657-3 0  9998
2 38745  49.8821  48.5469 2145653 235.1866 102.8221 11.16747420371611
Epoch (UTC): 17 January 2022 12:39:40
Eccentricity: 0.2145653
inclination: 49.8821°
perigee height: 262 km
apogee height: 3890 km
right ascension of ascending node: 48.5469°
argument of perigee: 235.1866°
revolutions per day: 11.16747420
mean anomaly at epoch: 102.8221°
orbit number at epoch: 37161

The dashed part of the orbit path shows where the satellite is in the earth's shadow,  

DLR